Location: Saint-Hippolyte
(43.6394°N, 4.7559°E)
Time: 15:42:40
(UTC+00:00)

Cosmos 1331 Rocket - Pass Details

Date: 24 October 2020
Orbit: 750 x 778 km, 74.0° (Epoch: 23 November)

Event Time Altitude Azimuth Distance (km) Brightness Sun altitude
Rises 17:51:12 0° 201° (SSW) 3,192 7.6 -13.0°
Reaches altitude 10° 17:53:33 10° 203° (SSW) 2,269 6.8 -13.4°
Maximum altitude 17:58:42 81° 290° (WNW) 766 4.1 -14.4°
Drops below altitude 10° 18:03:52 10° 19° (NNE) 2,279 6.2 -15.3°
Sets 18:06:15 0° 20° (NNE) 3,208 7.0 -15.7°
